Tracking 25372 objects as of 24-Jan-2022
HD Live streaming from Space Station
objects crossing your sky now

ONEWEB-0023

Track ONEWEB-0023 now!
10-day predictions
ONEWEB-0023 is classified as:


NORAD ID: 45136
Int'l Code: 2020-008F
Perigee: 1,227.0 km
Apogee: 1,230.6 km
Inclination: 87.9 °
Period: 109.9 minutes
Semi major axis: 7599 km
RCS: Unknown
Launch date: February 6, 2020
Source: United Kingdom (UK)
Launch site: TYURATAM MISSILE AND SPACE COMPLEX (TTMTR)
aabbcc
Your satellite tracking list
Your tracking list is empty




NASA's NSSDC Master Catalog

Two Line Element Set (TLE):
1 45136U 20008F   22023.88580272  .00000039  00000-0  74816-4 0  9990
2 45136  87.8925 355.3624 0002364  70.2692 289.8690 13.10377678 97842
Source of the keplerian elements: AFSPC